Overview Statistics Trail Chart Weather Telemetry Raw packets
 

This is the latest recevied weather packets stored in our database for station/object KA1AL. If no packets are shown the sender has not sent any weather packets the latest 10 day(s).

<< 39 40 41 42 43 44 45 >>
Time Temp. Humidity Pressure Rain* Wind** Luminosity Snow
1777417872 12.22° C 47% 1020 hPa 0 mm - 13 W/m² -
1777417568 12.78° C 48% 1020.1 hPa 0 mm - 15 W/m² -
1777417264 12.78° C 48% 1019.9 hPa 0 mm - 18 W/m² -
1777416961 13.33° C 47% 1020 hPa 0 mm - 20 W/m² -
1777416660 13.33° C 48% 1019.9 hPa 0 mm - 23 W/m² -
1777416357 13.33° C 48% 1019.6 hPa 0 mm - 29 W/m² -
1777416056 13.89° C 48% 1019.5 hPa 0 mm - 36 W/m² -
1777415752 13.89° C 49% 1019.9 hPa 0 mm - 38 W/m² -
1777415448 13.89° C 48% 1019.6 hPa 0 mm - 49 W/m² -
1777415143 14.44° C 48% 1019.7 hPa 0 mm - 74 W/m² -
1777414838 14.44° C 48% 1019.5 hPa 0 mm - 92 W/m² -
1777414533 15° C 48% 1019.6 hPa 0 mm - 105 W/m² -
1777414233 15° C 49% 1019.8 hPa 0 mm - 107 W/m² -
1777413928 15° C 47% 1019.4 hPa 0 mm - 128 W/m² -
1777413627 15° C 48% 1019.6 hPa 0 mm - 143 W/m² -
1777413320 15.56° C 48% 1019.5 hPa 0 mm - 164 W/m² -
1777413016 15.56° C 47% 1019.5 hPa 0 mm - 191 W/m² -
1777412715 15.56° C 47% 1019.6 hPa 0 mm - 201 W/m² -
1777412414 15.56° C 46% 1019.6 hPa 0 mm - 216 W/m² -
1777412113 15.56° C 46% 1019.7 hPa 0 mm - 221 W/m² -
1777411809 15.56° C 46% 1019.6 hPa 0 mm - 231 W/m² -
1777411508 15.56° C 47% 1019.5 hPa 0 mm - 256 W/m² -
1777411202 16.11° C 44% 1019.6 hPa 0 mm - 272 W/m² -
1777410897 16.11° C 45% 1019.6 hPa 0 mm - 286 W/m² -
1777410597 16.67° C 44% 1019.6 hPa 0 mm - 279 W/m² -

* Rain latest hour (hover to see other rain measurements)
** Current wind speed in m/s (hover to see current wind gust speed)